TimePDT,TemperatureF,Dew PointF,Humidity,Sea Level PressureIn,VisibilityMPH,Wind Direction,Wind SpeedMPH,Gust SpeedMPH,PrecipitationIn,Events,Conditions,WindDirDegrees,DateUTC
12:15 AM,51.8,46.4,82,30.04,9.0,NW,6.9,-,N/A,,Clear,320,2012-10-07 07:15:00
12:35 AM,51.8,44.6,76,30.04,9.0,NNW,8.1,-,N/A,,Clear,330,2012-10-07 07:35:00
12:55 AM,50.0,46.4,87,30.05,9.0,NW,6.9,-,N/A,,Clear,310,2012-10-07 07:55:00
1:15 AM,53.6,46.4,77,30.05,9.0,NW,8.1,-,N/A,,Clear,310,2012-10-07 08:15:00
1:35 AM,53.6,46.4,77,30.05,9.0,WNW,9.2,-,N/A,,Clear,300,2012-10-07 08:35:00
1:55 AM,53.6,46.4,77,30.05,9.0,WNW,9.2,-,N/A,,Clear,300,2012-10-07 08:55:00
2:15 AM,51.8,46.4,82,30.05,8.0,West,4.6,-,N/A,,Clear,260,2012-10-07 09:15:00
2:35 AM,50.0,46.4,87,30.04,8.0,West,5.8,-,N/A,,Clear,260,2012-10-07 09:35:00
2:55 AM,50.0,46.4,87,30.04,8.0,West,6.9,-,N/A,,Clear,270,2012-10-07 09:55:00
3:15 AM,50.0,46.4,87,30.04,7.0,West,5.8,-,N/A,,Clear,280,2012-10-07 10:15:00
3:35 AM,50.0,46.4,87,30.04,8.0,West,6.9,-,N/A,,Clear,280,2012-10-07 10:35:00
3:55 AM,50.0,46.4,87,30.04,8.0,NW,8.1,-,N/A,,Clear,310,2012-10-07 10:55:00
4:15 AM,50.0,46.4,87,30.04,8.0,WNW,8.1,-,N/A,,Clear,290,2012-10-07 11:15:00
4:55 AM,50.0,46.4,87,30.04,8.0,WNW,8.1,-,N/A,,Clear,300,2012-10-07 11:55:00
5:15 AM,50.0,46.4,87,30.04,7.0,WNW,8.1,-,N/A,,Clear,300,2012-10-07 12:15:00
5:35 AM,48.2,44.6,87,30.04,7.0,WNW,5.8,-,N/A,,Clear,290,2012-10-07 12:35:00
5:55 AM,48.2,46.4,93,30.04,7.0,NW,3.5,-,N/A,,Partly Cloudy,310,2012-10-07 12:55:00
6:35 AM,48.2,46.4,93,30.05,6.0,Calm,Calm,-,N/A,,Scattered Clouds,0,2012-10-07 13:35:00
6:55 AM,46.4,44.6,93,30.06,5.0,West,3.5,-,N/A,,Mostly Cloudy,270,2012-10-07 13:55:00
7:15 AM,46.4,46.4,100,30.06,5.0,Calm,Calm,-,N/A,,Scattered Clouds,0,2012-10-07 14:15:00
7:35 AM,48.2,46.4,93,30.07,5.0,Calm,Calm,-,N/A,,Clear,0,2012-10-07 14:35:00
7:55 AM,50.0,48.2,94,30.07,5.0,Calm,Calm,-,N/A,,Clear,0,2012-10-07 14:55:00
8:15 AM,53.6,48.2,82,30.07,5.0,West,3.5,-,N/A,,Haze,280,2012-10-07 15:15:00
8:35 AM,57.2,50.0,77,30.07,6.0,NW,8.1,-,N/A,,Haze,310,2012-10-07 15:35:00
8:55 AM,57.2,50.0,77,30.08,6.0,WNW,8.1,-,N/A,,Haze,300,2012-10-07 15:55:00
9:15 AM,59.0,48.2,67,30.08,7.0,WNW,9.2,-,N/A,,Clear,300,2012-10-07 16:15:00
9:55 AM,62.6,48.2,59,30.07,8.0,NW,10.4,-,N/A,,Clear,310,2012-10-07 16:55:00
10:15 AM,62.6,48.2,59,30.07,8.0,WNW,9.2,-,N/A,,Clear,300,2012-10-07 17:15:00
10:35 AM,64.4,48.2,56,30.07,8.0,WNW,8.1,-,N/A,,Clear,300,2012-10-07 17:35:00
10:55 AM,64.4,48.2,56,30.06,8.0,NW,9.2,-,N/A,,Clear,310,2012-10-07 17:55:00
11:15 AM,66.2,46.4,49,30.06,5.0,NW,9.2,-,N/A,,Haze,310,2012-10-07 18:15:00
11:35 AM,66.2,46.4,49,30.05,7.0,NW,9.2,-,N/A,,Clear,310,2012-10-07 18:35:00
11:55 AM,68.0,46.4,46,30.05,7.0,NW,10.4,-,N/A,,Clear,310,2012-10-07 18:55:00
12:15 PM,68.0,46.4,46,30.05,8.0,NW,10.4,-,N/A,,Clear,320,2012-10-07 19:15:00
12:35 PM,68.0,46.4,46,30.04,8.0,NW,12.7,-,N/A,,Clear,310,2012-10-07 19:35:00
12:55 PM,68.0,46.4,46,30.04,7.0,NW,11.5,-,N/A,,Clear,320,2012-10-07 19:55:00
1:15 PM,69.8,46.4,43,30.03,9.0,NW,11.5,-,N/A,,Clear,320,2012-10-07 20:15:00
1:35 PM,71.6,46.4,41,30.02,8.0,NW,13.8,-,N/A,,Clear,310,2012-10-07 20:35:00
1:55 PM,69.8,46.4,43,30.01,8.0,NW,13.8,18.4,N/A,,Clear,310,2012-10-07 20:55:00
2:15 PM,69.8,46.4,43,30.01,8.0,NW,13.8,20.7,N/A,,Clear,310,2012-10-07 21:15:00
2:35 PM,68.0,46.4,46,30.02,8.0,NW,16.1,20.7,N/A,,Clear,320,2012-10-07 21:35:00
2:55 PM,68.0,46.4,46,30.02,9.0,NW,16.1,-,N/A,,Clear,310,2012-10-07 21:55:00
3:15 PM,68.0,46.4,46,30.02,9.0,NW,13.8,18.4,N/A,,Clear,320,2012-10-07 22:15:00
3:35 PM,68.0,46.4,46,30.02,9.0,NW,15.0,-,N/A,,Clear,320,2012-10-07 22:35:00
3:55 PM,68.0,48.2,49,30.01,8.0,NW,13.8,-,N/A,,Clear,310,2012-10-07 22:55:00
4:15 PM,66.2,48.2,52,30.01,9.0,NW,15.0,-,N/A,,Clear,310,2012-10-07 23:15:00
4:35 PM,66.2,48.2,52,30.01,8.0,NW,11.5,18.4,N/A,,Clear,320,2012-10-07 23:35:00
4:55 PM,66.2,48.2,52,30.02,9.0,NW,13.8,-,N/A,,Clear,320,2012-10-07 23:55:00
5:15 PM,64.4,48.2,56,30.02,9.0,NW,13.8,-,N/A,,Clear,310,2012-10-08 00:15:00
5:35 PM,64.4,46.4,52,30.02,9.0,WNW,10.4,-,N/A,,Clear,300,2012-10-08 00:35:00
5:55 PM,62.6,46.4,55,30.03,9.0,NW,12.7,-,N/A,,Clear,310,2012-10-08 00:55:00
6:15 PM,60.8,46.4,59,30.03,8.0,NW,9.2,-,N/A,,Clear,310,2012-10-08 01:15:00
6:35 PM,59.0,46.4,63,30.04,9.0,NW,9.2,-,N/A,,Clear,310,2012-10-08 01:35:00
6:55 PM,57.2,46.4,67,30.04,10.0,NW,8.1,-,N/A,,Clear,320,2012-10-08 01:55:00
7:15 PM,57.2,46.4,67,30.04,10.0,NW,8.1,-,N/A,,Clear,320,2012-10-08 02:15:00
7:35 PM,55.4,46.4,72,30.05,10.0,NW,5.8,-,N/A,,Clear,320,2012-10-08 02:35:00
7:55 PM,55.4,46.4,72,30.05,10.0,NW,5.8,-,N/A,,Clear,310,2012-10-08 02:55:00
8:15 PM,55.4,46.4,72,30.05,10.0,WNW,5.8,-,N/A,,Clear,300,2012-10-08 03:15:00
8:35 PM,53.6,46.4,77,30.05,10.0,NNW,3.5,-,N/A,,Clear,330,2012-10-08 03:35:00
8:55 PM,53.6,46.4,77,30.06,10.0,WNW,5.8,-,N/A,,Clear,300,2012-10-08 03:55:00
9:15 PM,53.6,46.4,77,30.06,10.0,West,8.1,-,N/A,,Clear,270,2012-10-08 04:15:00
9:35 PM,53.6,44.6,72,30.07,10.0,WNW,6.9,-,N/A,,Clear,290,2012-10-08 04:35:00
9:55 PM,53.6,44.6,72,30.07,10.0,West,6.9,-,N/A,,Clear,280,2012-10-08 04:55:00
10:15 PM,51.8,42.8,71,30.07,10.0,West,6.9,-,N/A,,Clear,280,2012-10-08 05:15:00
10:35 PM,50.0,44.6,82,30.06,10.0,West,6.9,-,N/A,,Clear,270,2012-10-08 05:35:00
10:55 PM,50.0,44.6,82,30.06,10.0,West,5.8,-,N/A,,Clear,270,2012-10-08 05:55:00
11:15 PM,50.0,44.6,82,30.06,9.0,West,4.6,-,N/A,,Clear,280,2012-10-08 06:15:00
11:35 PM,50.0,44.6,82,30.05,10.0,Calm,Calm,-,N/A,,Clear,0,2012-10-08 06:35:00
11:55 PM,46.4,41.0,81,30.05,10.0,Calm,Calm,-,N/A,,Clear,0,2012-10-08 06:55:00